This is the latest recevied weather packets stored in our database for station/object N1IJV-10. If no packets are shown the sender has not sent any weather packets the latest 10 day(s).
| Time | Temp. | Humidity | Pressure | Rain* | Wind** | Luminosity | Snow |
|---|---|---|---|---|---|---|---|
| 1777215144 | 10.56° C | 91% | 1017.9 hPa | 0 mm | - | 145 W/m² | - |
| 1777214838 | 10.56° C | 92% | 1017.9 hPa | 0 mm | - | 149 W/m² | - |
| 1777214537 | 10.56° C | 93% | 1017.7 hPa | 0 mm | - | 134 W/m² | - |
| 1777214234 | 10° C | 94% | 1017.8 hPa | 0 mm | - | 158 W/m² | - |
| 1777213932 | 10° C | 94% | 1017.9 hPa | 0 mm | - | 127 W/m² | - |
| 1777213627 | 9.44° C | 96% | 1017.8 hPa | 0 mm | - | 123 W/m² | - |
| 1777213323 | 9.44° C | 97% | 1018 hPa | 0 mm | - | 110 W/m² | - |
| 1777213020 | 9.44° C | 97% | 1017.7 hPa | 0 mm | - | 105 W/m² | - |
| 1777212718 | 9.44° C | 98% | 1017.8 hPa | 0 mm | - | 99 W/m² | - |
| 1777212417 | 8.89° C | 99% | 1017.9 hPa | 0 mm | - | 114 W/m² | - |
| 1777212113 | 8.89° C | 99% | 1017.9 hPa | 0 mm | - | 95 W/m² | - |
| 1777211809 | 8.89° C | 99% | 1017.9 hPa | 0 mm | - | 83 W/m² | - |
| 1777211507 | 8.89° C | 99% | 1018 hPa | 0 mm | - | 72 W/m² | - |
| 1777211203 | 8.89° C | 99% | 1018.2 hPa | 0 mm | - | 71 W/m² | - |
| 1777210899 | 8.33° C | 99% | 1018 hPa | 0 mm | - | 63 W/m² | - |
| 1777210598 | 8.33° C | 99% | 1018.2 hPa | 0 mm | - | 51 W/m² | - |
| 1777210296 | 8.33° C | 99% | 1018.3 hPa | 0 mm | - | 52 W/m² | - |
| 1777209993 | 8.33° C | 99% | 1018.1 hPa | 0 mm | - | 55 W/m² | - |
| 1777209693 | 8.33° C | 99% | 1018.2 hPa | 0 mm | - | 54 W/m² | - |
| 1777209389 | 8.33° C | 99% | 1017.9 hPa | 0 mm | - | 49 W/m² | - |
| 1777209085 | 8.33° C | 99% | 1017.9 hPa | 0 mm | - | 40 W/m² | - |
| 1777208781 | 8.33° C | 99% | 1018.1 hPa | 0 mm | - | 42 W/m² | - |
| 1777208478 | 7.78° C | 99% | 1017.9 hPa | 0 mm | - | 40 W/m² | - |
| 1777208175 | 7.78° C | 99% | 1017.7 hPa | 0 mm | - | 43 W/m² | - |
| 1777207871 | 8.33° C | 99% | 1017.7 hPa | 0 mm | - | 37 W/m² | - |
* Rain latest hour (hover to see other rain measurements)
** Current wind speed in m/s (hover to see current wind gust speed)